Flag for USA

Past Weather in 41°17'38"N, 81°25'55"W, USA — Yesterday and Last 2 Weeks

Now
64 °F

Mostly cloudy.


Feels Like: 64 °F
Forecast: 82 / 64 °F
Wind: 3 mph from North

Location: Akron Fulton International Airport

Current Time: Aug 7, 2020 at 6:22:28 am

Latest Report: Aug 7, 2020 at 5:54 am


Visibility: 10 mi

Pressure: 30.09 "Hg

Humidity: 78%

Dew Point: 57 °F

Location of 41°17'38"N, 81°25'55"WLocation

Past Weather in 41°17'38"N, 81°25'55"W — Graph

°F

41°17'38"N, 81°25'55"W Temperature Yesterday

Maximum temperature yesterday: 80 °F (at 3:54 pm)
Minimum temperature yesterday: 60 °F (at 6:54 am)
Average temperature yesterday: 71 °F

High & Low Weather Summary for the Past Weeks

 TemperatureHumidityPressure
High95 °F (Jul 27, 1:54 pm)91% (Aug 3, 3:35 am)30.16 "Hg (Aug 3, 3:35 am)
Low60 °F (Aug 6, 6:54 am)32% (Jul 25, 3:54 pm)29.70 "Hg (Aug 2, 4:54 am)
Average75 °F68%29.96 "Hg
* Reported Jul 23 4:32 am — Aug 7 4:54 am, 41°17'38"N, 81°25'55"W. Weather by CustomWeather, © 2020

Note: Actual official high and low records may vary slightly from our data, if they occured in-between our weather recording intervals... More about our weather records

41°17'38"N, 81°25'55"W Weather History for the Previous 24 Hours

Scroll right to see more
 ConditionsComfort  
Time TempWeatherWind HumidityBarometerVisibility
4:54 am
Fri, Aug 7
63 °FPassing clouds.No wind78%30.09 "Hg10 mi
3:54 am64 °FClear.No wind73%30.09 "Hg10 mi
2:54 am66 °FPartly cloudy.No wind70%30.08 "Hg10 mi
1:54 am67 °FMostly cloudy.No wind68%30.08 "Hg10 mi
12:54 am66 °FPassing clouds.No wind70%30.09 "Hg10 mi
11:54 pm
Thu, Aug 6
66 °FClear.5 mph70%30.09 "Hg10 mi
10:54 pm67 °FClear.5 mph68%30.09 "Hg10 mi
9:54 pm70 °FClear.8 mph61%30.09 "Hg10 mi
8:54 pm72 °FClear.6 mph55%30.08 "Hg10 mi
7:54 pm77 °FScattered clouds.5 mph42%30.07 "Hg10 mi
6:54 pm79 °FSunny.6 mph39%30.07 "Hg10 mi
5:54 pm80 °FScattered clouds.5 mph38%30.06 "Hg10 mi
4:54 pm79 °FScattered clouds.7 mph41%30.06 "Hg10 mi
3:54 pm80 °FPartly sunny.6 mph39%30.08 "Hg10 mi
2:54 pm77 °FPartly sunny.No wind42%30.10 "Hg10 mi
1:54 pm79 °FPassing clouds.8 mph41%30.11 "Hg10 mi
12:54 pm76 °FPartly sunny.6 mph43%30.12 "Hg10 mi
11:54 am77 °FPassing clouds.7 mph40%30.12 "Hg10 mi
10:54 am75 °FSunny.8 mph47%30.12 "Hg10 mi
9:54 am73 °FSunny.6 mph48%30.12 "Hg10 mi
8:54 am69 °FSunny.5 mph61%30.13 "Hg10 mi
7:54 am65 °FSunny.No wind73%30.13 "Hg10 mi
6:54 am60 °FSunny.No wind83%30.12 "Hg10 mi
Weather by CustomWeather, © 2020

See weather overview